WetterOnline ( http://www.wetteronline.de )

Wetter aktuell Dietmannsried

Aktuelles Wetter: Kempten (705m)

6-stündlich | Neueste Meldungen
Ortszeit Temperatur Wetter
Sa, 21.07. 8:00 15.4° C leichter Regen
Sa, 21.07. 2:00 15.8° C wolkig
Fr, 20.07. 20:00 22.9° C leicht bewölkt
Fr, 20.07. 14:00 27.3° C wolkenlos
Fr, 20.07. 8:00 17.6° C wolkenlos
Fr, 20.07. 2:00 14.0° C leicht bewölkt
Do, 19.07. 20:00 25.1° C wolkenlos
Do, 19.07. 14:00 26.4° C wolkenlos
Ortszeit Temperatur Wetter
Sa, 21.07. 9:30 16.5° C leichter Regen
Sa, 21.07. 9:20 16.5° C leichter Regen
Sa, 21.07. 9:10 16.2° C leichter Regen
Sa, 21.07. 9:00 16.0° C Sprühregen
Sa, 21.07. 8:50 16.0° C Sprühregen
Sa, 21.07. 8:40 15.7° C leichter Regen
Sa, 21.07. 8:30 15.7° C leichter Regen
Sa, 21.07. 8:00 15.4° C leichter Regen
Sa, 21.07. 7:30 15.1° C Sprühregen
Sa, 21.07. 7:00 15.1° C leichter Regen
Sa, 21.07. 6:30 15.1° C leichter Regen
Ortszeit Relative Feuchte Sichtweite
Sa, 21.07. 8:00 92% 17 km
Sa, 21.07. 2:00 88% 26 km
Fr, 20.07. 20:00 51% 30 km
Fr, 20.07. 14:00 40% 25 km
Fr, 20.07. 8:00 70% 18 km
Fr, 20.07. 2:00 85% 17 km
Do, 19.07. 20:00 40% 30 km
Do, 19.07. 14:00 37% 16 km
Ortszeit Relative Feuchte Sichtweite
Sa, 21.07. 9:30 89% 22 km
Sa, 21.07. 9:20 89% -
Sa, 21.07. 9:10 89% -
Sa, 21.07. 9:00 91% 19 km
Sa, 21.07. 8:50 91% -
Sa, 21.07. 8:40 89% -
Sa, 21.07. 8:30 92% 14 km
Sa, 21.07. 8:00 92% 17 km
Sa, 21.07. 7:30 93% 18 km
Sa, 21.07. 7:00 93% 9 km
Sa, 21.07. 6:30 93% 16 km
Ortszeit Niederschlagsmenge Niederschlagsart
Sa, 21.07. 8:00 16 l/m2 in 12 Std. Regen
Sa, 21.07. 2:00 15 l/m2 in 6 Std. Regenschauer
Fr, 20.07. 20:00 0.0 l/m2 in 12 Std. -
Fr, 20.07. 14:00 0.0 l/m2 in 6 Std. -
Fr, 20.07. 8:00 0.0 l/m2 in 12 Std. -
Fr, 20.07. 2:00 0.0 l/m2 in 6 Std. -
Do, 19.07. 20:00 0.0 l/m2 in 12 Std. -
Do, 19.07. 14:00 0.0 l/m2 in 6 Std. -
Ortszeit Niederschlagsmenge Niederschlagsart
Sa, 21.07. 9:30 0.1 l/m2 in 1 Std. -
Sa, 21.07. 9:20 keine Meldung -
Sa, 21.07. 9:10 keine Meldung -
Sa, 21.07. 9:00 0.2 l/m2 in 1 Std. Regen
Sa, 21.07. 8:50 keine Meldung -
Sa, 21.07. 8:40 keine Meldung -
Sa, 21.07. 8:30 0.1 l/m2 in 1 Std. -
Sa, 21.07. 8:00 0.2 l/m2 in 1 Std. Regen
Sa, 21.07. 7:30 0.2 l/m2 in 1 Std. -
Sa, 21.07. 7:00 0.2 l/m2 in 1 Std. Regen
Sa, 21.07. 6:30 0.1 l/m2 in 1 Std. -
Ortszeit Stärke Spitze Richtung
km/h Bft. km/h Grad Sektor
Sa, 21.07. 8:00 7 2 15 - -
Sa, 21.07. 2:00 7 2 36 - -
Fr, 20.07. 20:00 9 2 24 - -
Fr, 20.07. 14:00 7 2 18 - -
Fr, 20.07. 8:00 4 1 14 - -
Fr, 20.07. 2:00 7 2 14 - -
Do, 19.07. 20:00 7 2 22 - -
Do, 19.07. 14:00 7 2 22 - -
Ortszeit Stärke Spitze Richtung
km/h Bft. km/h Grad Sektor
Sa, 21.07. 9:30 6 1 15 - -
Sa, 21.07. 9:20 6 1 - - -
Sa, 21.07. 9:10 9 2 - - -
Sa, 21.07. 9:00 7 2 14 - -
Sa, 21.07. 8:50 7 2 - - -
Sa, 21.07. 8:40 7 2 - - -
Sa, 21.07. 8:30 7 2 14 - -
Sa, 21.07. 8:00 7 2 15 - -
Sa, 21.07. 7:30 7 2 14 - -
Sa, 21.07. 7:00 7 2 15 - -
Sa, 21.07. 6:30 7 2 14 - -
Ortszeit Untergrenze Bedeckung Gattung
total tief tief mittel hoch
Sa, 21.07. 8:00 990 m 7/8 7/8 - - -
Sa, 21.07. 2:00 1440 m 8/8 1/8 - - -
Fr, 20.07. 20:00 5700 m 3/8 5/8 - - -
Fr, 20.07. 14:00 - 0/8 0/8 - - -
Fr, 20.07. 8:00 - 0/8 0/8 - - -
Fr, 20.07. 2:00 3300 m 3/8 3/8 - - -
Do, 19.07. 20:00 - 0/8 0/8 - - -
Do, 19.07. 14:00 - 0/8 0/8 - - -
Ortszeit Bedeckungsgrad in Achtel und Wolkenuntergrenze
Sa, 21.07. 9:30 1(900m) 7(1800m)
Sa, 21.07. 9:20 1(900m) 2(1440m) 7(1800m)
Sa, 21.07. 9:10 2(870m) 8(1800m)
Sa, 21.07. 9:00 7(1500m)
Sa, 21.07. 8:50 7(1500m)
Sa, 21.07. 8:40 1(1470m) 6(1500m) 7(2100m)
Sa, 21.07. 8:30 1(1500m) 6(2100m) 7(2700m)
Sa, 21.07. 8:00 1(990m) 7(1500m) 7(2400m)
Sa, 21.07. 7:30 4(1140m) 8(1470m)
Sa, 21.07. 7:00 6(1500m) 7(1800m) 7(2400m)
Sa, 21.07. 6:30 7(1800m) 8(2400m)
Ortszeit Luftdruck NN (hPa) Tendenz (hPa in 3 Std.)
Sa, 21.07. 8:00 1013 + 0,4
Sa, 21.07. 2:00 1013 - 1,4
Fr, 20.07. 20:00 1011 + 0,3
Fr, 20.07. 14:00 1010 - 0,9
Fr, 20.07. 8:00 1014 - 0,3
Fr, 20.07. 2:00 1016 - 0,3
Do, 19.07. 20:00 1013 - 0,5
Do, 19.07. 14:00 1014 - 0,4
Ortszeit Luftdruck NN (hPa) Tendenz (hPa in 3 Std.)
Sa, 21.07. 9:30 1012 + 0,4
Sa, 21.07. 9:20 1012 keine Meldung
Sa, 21.07. 9:10 1013 keine Meldung
Sa, 21.07. 9:00 1012 + 0,1
Sa, 21.07. 8:50 1012 keine Meldung
Sa, 21.07. 8:40 1013 keine Meldung
Sa, 21.07. 8:30 1012 + 0,1
Sa, 21.07. 8:00 1013 + 0,4
Sa, 21.07. 7:30 1013 + 0,5
Sa, 21.07. 7:00 1013 + 0,1
Sa, 21.07. 6:30 1012 - 0,2
Ortszeit Schneehöhe (cm)
Sa, 21.07. 8:00 -
Sa, 21.07. 2:00 -
Fr, 20.07. 20:00 -
Fr, 20.07. 14:00 -
Fr, 20.07. 8:00 -
Fr, 20.07. 2:00 -
Do, 19.07. 20:00 -
Do, 19.07. 14:00 -
Ortszeit Schneehöhe (cm)
Sa, 21.07. 9:30 -
Sa, 21.07. 9:20 -
Sa, 21.07. 9:10 -
Sa, 21.07. 9:00 -
Sa, 21.07. 8:50 -
Sa, 21.07. 8:40 -
Sa, 21.07. 8:30 -
Sa, 21.07. 8:00 -
Sa, 21.07. 7:30 -
Sa, 21.07. 7:00 -
Sa, 21.07. 6:30 -
Link zu dieser Seite / Seite empfehlen

Das Wetter in ...